[[{"header":{"parameterUnit":"m.s-1","parameterCategory":1,"la1":30.2991,"la2":30.254,"lo1":-89.0895,"lo2":-89.0444,"dy":0.0017,"dx":0.0017,"nx":28,"ny":28,"refTime":"2024-05-08T09:00:00:Z","depth":0,"parameterNumber":2,"parameterNumberName":"U-component_of_WINDS"},"data":[0,0,0,0,0,0,0,0,0,0,0,0,0,0,0,0,0,0,0,0,0,0,0,0,0,0,0,0,0,0,0,0,0,0,0,0,0,0,0,0,0,0,0,0,0,0,0,0,0,0,0,0,0,0,0,0,0,0,-0.2114,-0.2114,0,-0.2135,-0.2135,-0.2136,-0.2163,-0.2164,-0.2164,-0.2165,-0.2186,-0.2186,-0.2186,0,0,0,0,0,0,0,0,0,0,0,0,0,-0.2098,-0.2098,-0.2114,-0.2114,-0.2115,-0.2135,-0.2135,-0.2136,-0.2163,-0.2164,-0.2164,-0.2165,-0.2186,-0.2186,-0.2186,0,0,0,0,0,0,0,0,0,0,0,0,0,-0.2111,-0.2098,-0.2114,-0.2131,-0.2132,-0.2135,-0.2135,-0.2136,-0.2163,-0.2164,-0.2164,-0.2165,-0.2186,-0.2186,-0.2186,-0.2174,0,0,-0.2187,-0.2187,0,0,0,0,0,0,0,0,-0.211,-0.2111,-0.2128,-0.213,-0.2132,-0.2147,-0.2138,-0.2149,-0.2163,-0.2151,-0.2165,-0.2165,-0.2173,-0.2174,-0.2176,-0.2175,-0.2176,-0.2187,-0.2187,-0.2187,-0.2187,0,0,0,0,0,0,0,-0.2109,-0.211,-0.2122,-0.2128,-0.213,-0.2137,-0.214,-0.214,-0.2158,-0.2152,-0.2155,-0.2157,-0.2174,-0.2176,-0.2177,-0.2176,-0.2187,-0.2187,-0.2187,-0.2187,-0.2167,-0.2167,0,0,0,0,0,0,-0.2105,-0.2109,-0.2122,-0.2123,-0.2122,-0.2137,-0.214,-0.2142,-0.2158,-0.2161,-0.2156,-0.2158,-0.2175,-0.2177,-0.2178,-0.2166,-0.2187,-0.2188,-0.2188,-0.2168,-0.2167,-0.2166,0,0,0,0,0,0,-0.2105,-0.2106,-0.2121,-0.2117,-0.2119,-0.2137,-0.2138,-0.2142,-0.2144,-0.2161,-0.2164,-0.2155,-0.2176,-0.2178,-0.2175,-0.2167,-0.2188,-0.2188,-0.2169,-0.2168,-0.2167,-0.214,0,0,0,0,0,0,-0.2104,-0.2106,-0.2101,-0.2117,-0.2119,-0.2117,-0.2138,-0.2142,-0.2144,-0.2147,-0.2161,-0.2164,-0.2177,-0.2175,-0.2175,-0.2167,-0.2188,-0.217,-0.2168,-0.2167,-0.2142,-0.2138,-0.2135,0,0,0,0,0,-0.2104,-0.2093,-0.2101,-0.2102,-0.2114,-0.2117,-0.2119,-0.2134,-0.2144,-0.2139,-0.215,-0.2163,-0.2167,-0.2174,-0.2175,-0.2167,-0.217,-0.2169,-0.2167,-0.2143,-0.2139,-0.2135,0,0,0,0,0,0,-0.2076,-0.2095,-0.2104,-0.2098,-0.2106,-0.2122,-0.2117,-0.2128,-0.2133,-0.2136,-0.2154,-0.2157,-0.2152,-0.2159,-0.2167,-0.2157,-0.2171,-0.2169,-0.2152,-0.2148,-0.2145,-0.2143,-0.2188,0,0,0,0,0,-0.2069,-0.207,-0.2087,-0.2079,-0.2083,-0.2099,-0.2101,-0.2112,-0.212,-0.2124,-0.2134,-0.2142,-0.2146,-0.2147,-0.2151,-0.2143,-0.2147,-0.2138,-0.2134,-0.2132,-0.213,-0.2127,-0.2124,-0.2162,-0.2162,-0.2162,0,0,-0.2055,-0.2065,-0.2065,-0.2074,-0.2081,-0.2082,-0.2101,-0.2101,-0.2102,-0.2124,-0.2122,-0.213,-0.2141,-0.2135,-0.2133,-0.2141,-0.2121,-0.213,-0.2127,-0.2128,-0.2125,-0.2122,-0.2119,-0.2161,-0.2161,-0.2161,0,0,-0.2029,-0.2037,-0.2032,-0.2039,-0.205,-0.2061,-0.206,-0.2074,-0.2081,-0.2079,-0.2096,-0.2097,-0.2102,-0.2109,-0.2113,-0.2091,-0.2104,-0.2092,-0.2075,-0.2071,-0.2068,-0.2066,-0.2058,-0.2055,-0.209,-0.209,-0.209,0,-0.201,-0.2012,-0.2028,-0.2027,-0.2031,-0.2051,-0.2047,-0.2053,-0.2064,-0.2066,-0.2075,-0.2082,-0.209,-0.2087,-0.2082,-0.2084,-0.2084,-0.209,-0.2067,-0.2065,-0.2063,-0.2056,-0.2053,-0.2089,-0.2089,-0.2089,-0.2089,0,-0.1988,-0.1989,-0.1984,-0.1995,-0.1998,-0.1995,-0.2011,-0.2013,-0.2023,-0.2034,-0.2032,-0.2043,-0.205,-0.205,-0.206,-0.2049,-0.2053,-0.2064,-0.2079,-0.2058,-0.2052,-0.2049,-0.2087,-0.2087,-0.2088,-0.2088,0,0,-0.1946,-0.1966,-0.1964,-0.197,-0.1983,-0.1984,-0.1983,-0.1989,-0.199,-0.1997,-0.1997,-0.2001,-0.2011,-0.2016,-0.2027,-0.2025,-0.2007,-0.2036,-0.2037,-0.2031,-0.1996,-0.1987,-0.1984,-0.2015,-0.2015,-0.2015,-0.1995,0,-0.1923,-0.1922,-0.1936,-0.1931,-0.1932,-0.1951,-0.195,-0.1958,-0.1968,-0.197,-0.1981,-0.1984,-0.1997,-0.2,-0.1998,-0.201,-0.2,-0.2011,-0.2015,-0.2015,-0.2012,-0.1981,-0.1972,-0.1953,-0.1993,-0.1992,-0.1992,0,-0.1897,-0.1903,-0.1897,-0.1912,-0.1913,-0.1912,-0.1919,-0.1921,-0.1931,-0.1939,-0.1944,-0.1957,-0.1957,-0.1971,-0.1971,-0.1978,-0.1981,-0.1986,-0.1986,-0.1987,-0.2002,-0.1981,-0.1947,-0.1944,-0.1988,-0.1988,-0.1989,0,-0.1867,-0.1874,-0.1872,-0.1876,-0.1893,-0.1891,-0.1898,-0.1909,-0.1912,-0.1919,-0.1921,-0.1928,-0.1931,-0.1936,-0.1951,-0.1959,-0.1949,-0.1964,-0.1956,-0.1955,-0.1953,-0.1953,-0.1919,-0.1954,-0.1954,-0.1954,-0.1954,0,-0.1841,-0.1837,-0.1859,-0.1857,-0.1854,-0.1871,-0.1867,-0.1876,-0.1885,-0.1886,-0.1903,-0.1903,-0.1923,-0.1926,-0.1937,-0.1936,-0.1937,-0.1943,-0.1947,-0.1942,-0.1941,-0.1944,-0.1946,-0.1953,-0.1953,-0.1954,-0.1954,0,-0.1807,-0.1822,-0.1821,-0.1837,-0.1841,-0.1837,-0.1851,-0.1851,-0.1861,-0.1862,-0.1864,-0.188,-0.1885,-0.19,-0.1908,-0.1916,-0.1911,-0.1917,-0.1907,-0.191,-0.19,-0.1901,-0.1867,-0.1864,-0.19,-0.19,-0.19,0,-0.179,-0.1787,-0.1803,-0.1805,-0.1811,-0.1814,-0.1817,-0.1834,-0.1837,-0.1849,-0.1847,-0.1853,-0.1858,-0.1864,-0.1877,-0.1883,-0.189,-0.1878,-0.1891,-0.1887,-0.189,-0.1891,-0.1891,-0.1875,-0.1874,-0.1874,-0.1873,0,-0.1757,-0.1765,-0.1769,-0.1776,-0.178,-0.1786,-0.1793,-0.1794,-0.1813,-0.1815,-0.182,-0.1824,-0.1832,-0.1838,-0.1846,-0.1854,-0.1867,-0.1869,-0.1868,-0.1863,-0.1858,-0.1861,-0.19,-0.187,-0.187,-0.187,-0.1871,-0.1871,-0.1732,-0.1731,-0.1742,-0.1746,-0.1753,-0.176,-0.176,-0.1771,-0.1775,-0.1783,-0.1793,-0.1797,-0.1807,-0.182,-0.1827,-0.183,-0.1837,-0.1835,-0.1834,-0.1833,-0.1832,-0.1857,-0.1832,-0.1832,-0.1832,-0.1832,-0.1832,0,-0.1701,-0.1709,-0.1713,-0.1723,-0.1726,-0.1738,-0.1747,-0.1749,-0.1752,-0.1761,-0.1766,-0.1771,-0.1777,-0.179,-0.1797,-0.1797,-0.1804,-0.1799,-0.1799,-0.1801,-0.1824,-0.1825,-0.1794,-0.1794,-0.1794,-0.1794,-0.1794,-0.1794,-0.1685,-0.1684,-0.1693,-0.1695,-0.1704,-0.1707,-0.1711,-0.1718,-0.1725,-0.173,-0.1735,-0.1744,-0.1755,-0.1763,-0.1768,-0.1772,-0.1774,-0.1768,-0.1773,-0.1795,-0.1799,-0.1803,-0.1804,-0.1768,-0.1768,-0.175,-0.1749,-0.1749]},{"header":{"parameterUnit":"m.s-1","parameterCategory":1,"la1":30.2991,"la2":30.254,"lo1":-89.0895,"lo2":-89.0444,"dy":0.0017,"dx":0.0017,"nx":28,"ny":28,"refTime":"2024-05-08T09:00:00:Z","depth":0,"parameterNumber":3,"parameterNumberName":"V-component_of_WINDS"},"data":[0,0,0,0,0,0,0,0,0,0,0,0,0,0,0,0,0,0,0,0,0,0,0,0,0,0,0,0,0,0,0,0,0,0,0,0,0,0,0,0,0,0,0,0,0,0,0,0,0,0,0,0,0,0,0,0,0,0,7.7161,7.7162,0,7.7222,7.7223,7.7224,7.7159,7.7157,7.7154,7.7152,7.7207,7.7211,7.7215,0,0,0,0,0,0,0,0,0,0,0,0,0,7.6981,7.6985,7.7161,7.7162,7.7163,7.7222,7.7223,7.7224,7.7159,7.7156,7.7153,7.7151,7.7206,7.7211,7.7215,0,0,0,0,0,0,0,0,0,0,0,0,0,7.7052,7.6986,7.7161,7.7138,7.7136,7.7222,7.7223,7.7224,7.716,7.7156,7.7153,7.7149,7.7205,7.721,7.7216,7.7325,0,0,7.7233,7.7236,0,0,0,0,0,0,0,0,7.7048,7.7059,7.714,7.714,7.7138,7.7179,7.718,7.7258,7.7161,7.7151,7.7152,7.7147,7.7201,7.7206,7.7226,7.7327,7.733,7.7234,7.7237,7.7239,7.7241,0,0,0,0,0,0,0,7.7044,7.7056,7.7185,7.7142,7.714,7.7122,7.7128,7.7194,7.7195,7.7151,7.7147,7.7155,7.7199,7.722,7.7226,7.7331,7.7233,7.7238,7.7242,7.7244,7.7523,7.7527,0,0,0,0,0,0,7.7042,7.7052,7.7183,7.7187,7.7084,7.7128,7.7135,7.717,7.7195,7.7195,7.7159,7.7152,7.7213,7.722,7.7228,7.7357,7.7239,7.7245,7.7248,7.7519,7.7524,7.7529,0,0,0,0,0,0,7.7039,7.7055,7.7181,7.7119,7.7133,7.7135,7.7175,7.7173,7.7194,7.72,7.7199,7.7181,7.721,7.722,7.7301,7.7358,7.7247,7.7252,7.7515,7.7521,7.7526,7.7615,0,0,0,0,0,0,7.7034,7.7054,7.7097,7.712,7.7137,7.7255,7.7178,7.7177,7.7205,7.7197,7.722,7.7221,7.7208,7.7293,7.7307,7.7363,7.7257,7.751,7.7517,7.7525,7.7607,7.7623,7.7637,0,0,0,0,0,7.7028,7.7118,7.7099,7.7116,7.7191,7.7259,7.7268,7.7253,7.721,7.7252,7.7256,7.722,7.735,7.7302,7.7317,7.7376,7.7506,7.7515,7.7524,7.76,7.762,7.7637,0,0,0,0,0,0,7.7099,7.7121,7.71,7.7201,7.7229,7.7248,7.73,7.7275,7.7313,7.7304,7.7282,7.7288,7.7374,7.7383,7.733,7.7482,7.742,7.7433,7.7473,7.7492,7.7507,7.7502,7.7262,0,0,0,0,0,7.7127,7.7182,7.7197,7.7285,7.73,7.7298,7.7327,7.7314,7.734,7.7351,7.736,7.7386,7.7432,7.7463,7.7506,7.7609,7.7612,7.7656,7.7671,7.7684,7.7694,7.7748,7.7768,7.7558,7.7558,7.7558,0,0,7.7184,7.7203,7.7239,7.73,7.732,7.7375,7.7308,7.737,7.741,7.7359,7.7437,7.7445,7.7471,7.7564,7.7605,7.7574,7.7753,7.7695,7.7705,7.7709,7.7759,7.7779,7.7797,7.7564,7.7563,7.7562,0,0,7.7317,7.7338,7.7413,7.7434,7.7466,7.7464,7.7482,7.7505,7.7509,7.7588,7.7551,7.7597,7.7677,7.7698,7.7719,7.786,7.7827,7.7874,7.7952,7.8005,7.8021,7.8036,7.8085,7.8103,7.7885,7.7885,7.7885,0,7.7383,7.7468,7.7454,7.7519,7.7546,7.7505,7.7579,7.76,7.7643,7.7662,7.7627,7.7727,7.7742,7.7838,7.7873,7.7892,7.791,7.7871,7.8021,7.8035,7.8048,7.8095,7.8113,7.789,7.789,7.7889,7.7889,0,7.7548,7.7607,7.7663,7.7709,7.7742,7.7811,7.7805,7.784,7.7824,7.7825,7.7904,7.7921,7.7966,7.7988,7.7972,7.8082,7.8062,7.8025,7.7961,7.8074,7.8117,7.8135,7.7898,7.7896,7.7894,7.7893,0,0,7.7726,7.7764,7.7784,7.7804,7.7836,7.788,7.7947,7.7994,7.8023,7.8054,7.8108,7.8178,7.8144,7.8167,7.8153,7.8199,7.8308,7.8156,7.8156,7.8183,7.8429,7.8456,7.8477,7.8288,7.8291,7.8294,7.8426,0,7.7859,7.7977,7.7966,7.8077,7.813,7.8092,7.815,7.8175,7.8178,7.8221,7.8223,7.8273,7.8224,7.8238,7.8283,7.8286,7.8357,7.8276,7.8335,7.8338,7.8329,7.85,7.8529,7.8652,7.8443,7.8446,7.8448,0,7.8029,7.8069,7.8186,7.821,7.8232,7.8284,7.8326,7.8369,7.8395,7.8394,7.8421,7.8399,7.8463,7.84,7.8487,7.8433,7.8456,7.8461,7.8466,7.8469,7.8399,7.8507,7.8692,7.871,7.8475,7.8473,7.8471,0,7.8146,7.8229,7.831,7.8328,7.8358,7.8395,7.8409,7.8432,7.8461,7.8496,7.8514,7.8556,7.8579,7.8611,7.8599,7.8555,7.8688,7.8625,7.8687,7.8687,7.8716,7.8714,7.8906,7.8733,7.8733,7.8733,7.8732,0,7.8295,7.8368,7.8363,7.8412,7.8492,7.8478,7.8556,7.8564,7.8585,7.8634,7.8603,7.8649,7.8632,7.8676,7.8667,7.874,7.875,7.8749,7.8746,7.8752,7.8752,7.8766,7.8756,7.8738,7.8737,7.8736,7.8735,0,7.8439,7.8439,7.8524,7.8546,7.8553,7.8611,7.8628,7.8674,7.8675,7.8736,7.875,7.875,7.8801,7.8793,7.8848,7.8842,7.8933,7.8919,7.8925,7.8921,7.8984,7.8978,7.919,7.9217,7.9029,7.903,7.9032,0,7.8534,7.8589,7.8618,7.865,7.8667,7.8718,7.8747,7.8735,7.8766,7.8801,7.8842,7.889,7.8927,7.9009,7.9013,7.9055,7.9041,7.9113,7.9047,7.9051,7.9041,7.9037,7.9042,7.9125,7.9127,7.9129,7.9131,0,7.8701,7.8698,7.8744,7.8789,7.8826,7.8861,7.8891,7.8918,7.8908,7.8945,7.8998,7.9027,7.9084,7.9132,7.9171,7.9182,7.9154,7.9152,7.9168,7.9174,7.9174,7.9174,7.8959,7.9146,7.9145,7.9144,7.9143,7.9142,7.8822,7.8869,7.8897,7.8949,7.8971,7.9001,7.9045,7.9052,7.9096,7.9143,7.9133,7.9191,7.9215,7.9265,7.9281,7.9325,7.9298,7.9322,7.9328,7.9334,7.9341,7.9169,7.9332,7.9332,7.9331,7.9331,7.9331,0,7.8987,7.9003,7.9051,7.9096,7.9136,7.9109,7.9142,7.9176,7.9229,7.9255,7.9293,7.9353,7.9399,7.9407,7.945,7.9483,7.9471,7.9495,7.9491,7.9494,7.9363,7.9344,7.9504,7.9504,7.9504,7.9504,7.9503,7.9503,7.9077,7.9156,7.9156,7.9245,7.926,7.9319,7.934,7.9367,7.9387,7.9456,7.9494,7.95,7.9518,7.9562,7.9602,7.9603,7.962,7.9648,7.9644,7.9521,7.9504,7.9487,7.9469,7.9652,7.9652,7.9771,7.9772,7.9773]}]]